Regional Weather Roundup
Issued by NWS

Home | Current Version | Previous Version | Text Only | Print | Product List | Glossary On
Versions: 1 2 3 4 5 6 7 8 9 10 11 12 13 14 15 16 17 18 19 20 21 22 23 24 25 26 27 28 29 30 31 32 33 34 35 36 37 38 39 40 41 42 43 44 45 46 47 48 49 50
000
ASUS43 KMKX 130510
RWRWI

WISCONSIN REGIONAL WEATHER ROUNDUP
NATIONAL WEATHER SERVICE MILWAUKEE/SULLIVAN WI
1100 PM CST FRI FEB 12 2016

NOTE: "FAIR" INDICATES FEW OR NO CLOUDS BELOW 12,000 FEET WITH NO
SIGNIFICANT WEATHER AND/OR OBSTRUCTIONS TO VISIBILITY.

WIZ001-002-006>008-014>016-023>028-130600-
NORTHWEST WISCONSIN

CITY           SKY/WX    TMP DP  RH WIND       PRES   REMARKS
SUPERIOR ARPT  MOCLDY    -4 -17  54 NW12      30.59R WCI -22
ASHLAND        MOCLDY    -3 -10  72 NW7       30.53R WCI -16
HAYWARD        CLEAR     -5 -18  53 VRB3      30.49R
SIREN          CLEAR     -4 -17  53 NW8       30.57R WCI -19
CUMBERLAND     CLOUDY    -4 -18  50 NW12G20   30.51R WCI -22
RICE LAKE      CLOUDY    -2 -16  50 NW8       30.53R WCI -17
CHETEK         CLOUDY    -4 -16  56 NW7       30.52S WCI -18
LADYSMITH      CLOUDY    -3 -17  51 NW10      30.49R WCI -21
EAU CLAIRE     CLOUDY     0 -16  46 NW13      30.53R WCI -18
MENOMONIE      CLOUDY     1 -15  46 NW8       30.55R WCI -13
NEW RICHMOND   CLOUDY    -2 -15  55 NW8       30.56S WCI -17
OSCEOLA        CLOUDY     0 -14  51 NW7       30.61R WCI -13
$$

WIZ003>005-009-010-017-018-130600-
NORTH CENTRAL WISCONSIN

CITY           SKY/WX    TMP DP  RH WIND       PRES   REMARKS
MANITOWISH WTR CLOUDY    -4 -10  77 NW9       30.34S HAZE    WCI -21
ARBOR VITAE    CLEAR     -3 -10  74 NW7       30.34S WCI -17
WOODRUFF       CLEAR     -3 -10  74 NW7       30.34S WCI -17
RHINELANDER    CLEAR     -5 -14  65 W8        30.34R WCI -20
EAGLE RIVER    CLEAR     -5 -11  75 W7        30.32R WCI -19
LAND O LAKES   CLEAR     -1  -6  80 NW9       30.31S WCI -17
PHILLIPS       CLOUDY    -8 -17  65 CALM      30.40R
TOMAHAWK       CLEAR     -6 -15  64 W7        30.38R WCI -20
MEDFORD        CLEAR     -6 -18  57 W7        30.40S WCI -20
MERRILL        CLEAR     -3 -15  56 NW9G16    30.41R WCI -18
$$

WIZ029-030-035-036-043>047-130600-
CENTRAL WISCONSIN

CITY           SKY/WX    TMP DP  RH WIND       PRES   REMARKS
WAUSAU         CLEAR     -1 -15  51 NW8       30.40R WCI -15
MOSINEE        CLEAR     -2 -13  60 W6        30.42S WCI -14
MARSHFIELD     CLEAR     -3 -18  48 NW10      30.43R WCI -20
STEVENS POINT  CLEAR     -3 -16  54 W5        30.45R WCI -14
WAUPACA        PTCLDY     2 -14  48 W6        30.46S WCI -10
WAUTOMA        PTCLDY    -1 -16  49 W7        30.49R WCI -14
WISC RAPIDS    CLEAR     -2 -17  49 NW9       30.48R WCI -18
CAMP DOUGLAS   CLEAR     -5 -16  58 W7        30.50R WCI -19
$$

WIZ011>013-019>022-031-037>040-048>050-130600-
NORTHEAST WISCONSIN

CITY           SKY/WX    TMP DP  RH WIND       PRES   REMARKS
ANTIGO         CLEAR     -5 -14  66 NW9       30.34S WCI -22
SHAWANO        PTCLDY     1 -12  54 W6        30.43S WCI -10
OCONTO         CLEAR     -1 -12  60 W7        30.43R WCI -14
STURGEON BAY   CLEAR      0 -11  60 W12       30.41R WCI -18
GREEN BAY      CLEAR     -1 -13  56 W10       30.44R WCI -17
MANITOWOC      CLEAR      0 -11  59 NW13      30.43S WCI -18
APPLETON       CLEAR      0 -15  50 W13       30.42R WCI -18
CLINTONVILLE   CLEAR      1 -13  51 W6        30.44R WCI -10
OSHKOSH        CLEAR      0 -13  54 NW9       30.45R WCI -15
$$

WIZ032>034-041-042-053>061-130600-
SOUTHWEST WISCONSIN

CITY           SKY/WX    TMP DP  RH WIND       PRES   REMARKS
LA CROSSE      CLOUDY     2 -12  52 NW7       30.57R WCI -11
SPARTA         CLOUDY     0 -13  53 NW3       30.53S
VIROQUA        CLOUDY    -1 -13  57 NW6       30.48R WCI -13
BOSCOBEL       CLOUDY     4 -11  50 CALM      30.56R
PRAIRIE DU CHI CLOUDY     4 -11  49 NW6       30.57R WCI  -7
PLATTEVILLE    CLEAR      5 -10  50 N12       30.50R WCI -11
$$

WIZ056-057-062-063-064-067-068-130600-
SOUTH CENTRAL WISCONSIN

CITY           SKY/WX    TMP DP  RH WIND       PRES   REMARKS
REEDSBURG      CLEAR      2 -14  47 NW6       30.50R WCI  -9
BARABOO/DELLS  CLEAR      1 -15  46 NW7       30.48S WCI -12
LONE ROCK      CLEAR      5 -14  41 NW6       30.54R WCI  -6
MINERAL POINT  CLEAR      5 -13  43 NW9       30.48R WCI  -9
MADISON        CLEAR      2 -13  49 NW5       30.49R WCI  -8
MIDDLETON      CLEAR      5 -11  48 NW8       30.49R WCI  -9
WATERTOWN      CLEAR      3  -9  56 NW8       30.46S WCI -11
MONROE         CLEAR      5  -9  51 NW9G16    30.46R WCI  -9
JANESVILLE     CLEAR      9  -9  43 N15G22    30.48R WCI  -8
$$

WIZ051-052-058>065-066-070>072-130600-
SOUTHEAST WISCONSIN

CITY           SKY/WX    TMP DP  RH WIND       PRES   REMARKS
MILWAUKEE      CLEAR      4 -12  48 NW15G23   30.46R WCI -14
WAUKESHA       CLEAR      1 -13  51 NW9       30.46R WCI -14
MILWAUKEE/TIMM CLEAR      3 -15  43 NW13      30.46S WCI -14
RACINE         CLEAR      5 -12  45 NW16G24   30.47R WCI -14
BURLINGTON     CLEAR      3 -12  48 N18G24    30.46R WCI -17
KENOSHA        CLEAR      6 -10  47 N21G29    30.45R WCI -14
FOND DU LAC    CLEAR      1 -12  54 NW10      30.46R WCI -15
SHEBOYGAN      CLEAR      2 -12  52 NW12      30.43R WCI -15
WEST BEND      CLEAR      1 -13  51 NW9G16    30.44R WCI -14
JUNEAU         CLEAR      1 -12  57 NW7       30.47R WCI -12
$$

LSZ147-162-130600-
LAKE SUPERIOR

STATION/POSITION TIME  TEMP    WIND        PRES    WAVE
                       AIR SEA DIR/SP/G            HT/PER
                 (UTC) (F)     (DEG/KT/KT) (MB)    (FT/S)
DEVILS ISLAND    0500    1     330/ 24/ 26 1035.3F
SAXON HARBOR     0400    4                 1032.5R
$$

LMZ867-665-643>646-130600-
LAKE MICHIGAN

STATION/POSITION TIME  TEMP    WIND        PRES    WAVE
                       AIR SEA DIR/SP/G            HT/PER
                 (UTC) (F)     (DEG/KT/KT) (MB)    (FT/S)
CHAMBERS ISLAND  0400    2     260/  5/ 11 1028.8R
SISTER BAY       0420    2     330/ 24/ 28   N/A
ALGOMA LAKESHORE 0426          330/  6/  9   N/A
KEWAUNEE LAKESHO 0400    2     310/ 10/ 15 1028.6R
SHEBOYGAN LAKESH 0500    3     300/ 13/ 15 1032.7R
PORT WASHINGTON  0440    4     310/  8/ 15 1032.2R
MILWAUKEE LAKESH 0410    7     330/  9/ 12   N/A
KENOSHA   LAKESH 0500    7     330/ 17/ 20 1030.8R
$$

TC  - TEMPERATURE IN CELSIUS
VSB - VISIBILITY IN STATUTE MILES
WCI - WIND CHILL INDEX
HX  - HEAT INDEX




USA.gov is the U.S. government's official web portal to all federal, state and local government web resources and services.